Weather History for Lake Charles Regional, LA

Change the Weather History Date:

Monday, May 14, 2012

  Actual Average Record
Temperature  
Mean Temperature 73 °F 75 °F  
Max Temperature 85 °F 84 °F 94 °F (1915)
Min Temperature 61 °F 66 °F 51 °F (1917)
Degree Days  
Heating Degree Days 0 0  
Month to date heating degree days 0 0  
Since 1 July heating degree days 954 1489  
Cooling Degree Days 8 10  
Month to date cooling degree days 157 122  
Year to date cooling degree days 651 330  
Growing Degree Days 22 (Base 50)    
Moisture  
Dew Point 61 °F    
Average Humidity 69    
Maximum Humidity 100    
Minimum Humidity 37    
Precipitation  
Precipitation 0.00 in 0.16 in 1.62 in (2007)
Month to date precipitation 4.61 2.11  
Year to date precipitation 31.70 17.79  
Snow  
Snow 0.00 in 0.00 in 0.00 in ()
Month to date snowfall 0.0 0.0  
Since 1 July snowfall 0.0 0.1  
Snow Depth 0.00 in    
Sea Level Pressure  
Sea Level Pressure 30.04 in    
Wind  
Wind Speed 4 mph (NNE)    
Max Wind Speed 15 mph    
Max Gust Speed 22 mph    
Visibility 7 miles    
Events      
T = Trace of Precipitation, MM = Missing Value Source: NWS Daily Summary

Daily Weather History Graph

Daily Weather History Graph

Search for Another Location

Airport:

Trip Planner

Search our weather history database for the weather conditions in past years. The results will help you decide how hot, cold, wet, or windy it might be!

Date:

Astronomy

May. 14, 2012 Rise Set
Actual Time 6:19 AM CDT 7:59 PM CDT
Civil Twilight 5:53 AM CDT 8:25 PM CDT
Nautical Twilight 5:21 AM CDT 8:57 PM CDT
Astronomical Twilight 4:48 AM CDT 9:30 PM CDT
Moon 2:29 AM CDT (5/14) 2:42 PM CDT (5/14)
Length of Visible Light 14h 32m
Length of Day
13h 39m
Waning Crescent, 32% of the Moon is Illuminated
May 14
Waning Crescent
May 20
New
May 28
First Quarter
Jun 4
Full
Jun 11
Last Quarter

Hourly Weather History & Observations

Time (CDT) Temp. Heat Index Dew Point Humidity Pressure Visibility Wind Dir Wind Speed Gust Speed Precip Events Conditions
12:53 AM 64.9 °F - 63.0 °F 93% 30.08 in 5.0 mi Calm Calm - N/A   Clear
1:53 AM 64.9 °F - 63.0 °F 93% 30.06 in 5.0 mi Calm Calm - N/A   Clear
2:53 AM 63.0 °F - 62.1 °F 97% 30.05 in 4.0 mi Calm Calm - N/A   Clear
3:53 AM 64.0 °F - 62.1 °F 93% 30.04 in 5.0 mi Calm Calm - N/A   Clear
4:53 AM 63.0 °F - 61.0 °F 93% 30.04 in 4.0 mi Calm Calm - N/A   Clear
5:53 AM 63.0 °F - 62.1 °F 97% 30.04 in 4.0 mi Calm Calm - N/A   Clear
6:10 AM 62.6 °F - 60.8 °F 94% 30.03 in 2.0 mi Calm Calm - N/A   Clear
6:17 AM 60.8 °F - 60.8 °F 100% 30.03 in 3.0 mi Calm Calm - N/A   Clear
6:53 AM 63.0 °F - 62.1 °F 97% 30.06 in 3.0 mi Calm Calm - N/A   Clear
7:53 AM 69.1 °F - 63.0 °F 81% 30.09 in 7.0 mi North 3.5 mph - N/A   Clear
8:53 AM 73.9 °F - 62.1 °F 66% 30.10 in 8.0 mi North 6.9 mph - N/A   Clear
9:53 AM 77.0 °F - 62.1 °F 60% 30.10 in 10.0 mi North 6.9 mph - N/A   Clear
10:53 AM 79.0 °F - 57.9 °F 48% 30.09 in 10.0 mi NNE 5.8 mph - N/A   Clear
11:53 AM 81.0 °F 81.1 °F 57.9 °F 45% 30.09 in 10.0 mi East 4.6 mph - N/A   Clear
12:53 PM 82.0 °F 81.7 °F 57.0 °F 42% 30.08 in 10.0 mi East 6.9 mph - N/A   Mostly Cloudy
1:53 PM 82.9 °F 82.6 °F 57.9 °F 42% 30.05 in 10.0 mi North 4.6 mph - N/A   Scattered Clouds
2:53 PM 84.9 °F 83.9 °F 57.0 °F 38% 30.02 in 10.0 mi North 10.4 mph 18.4 mph N/A   Partly Cloudy
3:53 PM 82.9 °F 82.1 °F 55.9 °F 39% 30.00 in 10.0 mi NNE 9.2 mph - N/A   Partly Cloudy
4:53 PM 84.9 °F 83.7 °F 55.9 °F 37% 29.99 in 10.0 mi North 6.9 mph - N/A   Scattered Clouds
5:53 PM 82.9 °F 82.4 °F 57.0 °F 41% 29.98 in 10.0 mi ENE 8.1 mph - N/A   Mostly Cloudy
6:53 PM 81.0 °F 81.0 °F 57.0 °F 44% 29.97 in 10.0 mi ENE 5.8 mph - N/A   Clear
7:53 PM 75.0 °F - 64.0 °F 69% 29.99 in 10.0 mi Calm Calm - N/A   Clear
8:53 PM 70.0 °F - 64.9 °F 84% 30.01 in 10.0 mi Calm Calm - N/A   Clear
9:53 PM 68.0 °F - 64.9 °F 90% 30.02 in 7.0 mi Calm Calm - N/A   Clear
10:53 PM 66.9 °F - 64.0 °F 90% 30.03 in 8.0 mi Calm Calm - N/A   Clear
11:53 PM 68.0 °F - 64.0 °F 87% 30.01 in 8.0 mi Calm Calm - N/A   Clear